STARLINK-34699, 64921

Orbit data source: Space-Track

STARLINK-34699, 64921 is a payload satellite owned by SpaceX/Seattle (US) in LEO that was launched on Sat, 26 Jul 2025 UTC via an FALCON 9 launch vehicle from the Air Force Eastern Test Range (AFETR). Payload-class satellites include a variety of spacecraft equipped with specific instruments for various scientific and technological missions. These include communications satellites like Starlink; space stations such as the ISS; scientific satellites like the Hubble; Earth observation satellites from companies like Planet Labs, Umbra, and HawkEye 360; GPS; miniature CubeSats for education and research; and military/defense satellites.

Loading next visibility...
Identifier
64921, 2025-157T
Orbit
LEO
Country
Flag of USUS
Related business
Manufacturer
SpaceX/Seattle
Mission
Operational Commercial Communications
Bus & Motor
STARLINK V2MO, Unknown motor
Mass
575 kg wet, ~530 kg dry
Launch date (UTC)
2025-07-26 (4 months ago)
Launch vehicle
FALCON 9
Launch site
Air Force Eastern Test Range (AFETR)
Object type
Payload
Rocket body
Debris
Shape & HBR
Box + 2 Pan, 17.7 m
Radar Cross Section
36.964 m², Large (>1 m²)

Expand to show TLE details & history
Last TLE update: 12 hours ago

TLE from 12 hours ago
0 STARLINK-34699
1 64921U 25157T   25340.88129274  .00074504  00000-0  18522-2 0  9997
2 64921  53.1593  61.0736 0004546  40.2209 319.9132 15.39650098 21859
Epoch: 2025-12-06T21:09Z
TLE epoch observation values (Epoch: 2025-12-06T21:09:03.692Z)
Latitude
-0°
Longitude
27.90555°
Altitude
445.673 km
Speed
7.647 km/s
True Right ascension
04h 04m 17s
True Declination
0° 00' 00"
Sunlit
Object was in full shadow at epoch
Visualization orbit readout
Latitude
Unknown
Longitude
Unknown
Altitude
Unknown
Speed
Unknown
Apparent Right ascension
Unknown
Apparent Declination
Unknown
Sunlit
N/A
Visualization observer readout
Local Sidereal Time
07:36:45
Azimuth
Unknown
Elevation
Unknown
Doppler factor
Unknown
Orbital elements
Apogee altitude
450.504 km
Perigee altitude
444.298 km
Semi-major axis
6,825.538 km
Eccentricity
0.00045
Inclination
53.1593°
RAAN
61.0736°
Arg. of periapsis
40.2209°
True anomaly
319.87964°
Mean anomaly
319.9132°
Eccentric anomaly
319.89642°
Mean motion
3.84891 °/min
Orbital period
93.53 mins
BSTAR
0.0018522
Loading maneuver chart data...
Computing Atmospheric mass density...
Loading historical data...
Loading historical data...
Loading historical data...
Loading historical data...
Loading historical data...
Loading historical data...
Loading historical data...

Documentation

Showing up to 5 results
|